Weather History for Columbus, OH

Change the Weather History Date:

Wednesday, April 24, 2013

  Actual Average Record
Temperature  
Mean Temperature 51 °F 56 °F  
Max Temperature 65 °F 67 °F 88 °F (1960)
Min Temperature 37 °F 45 °F 28 °F (1930)
Degree Days  
Heating Degree Days 14 10  
Month to date heating degree days 289 320  
Since 1 July heating degree days 4998 5031  
Cooling Degree Days 0 1  
Month to date cooling degree days 23 6  
Year to date cooling degree days 23 6  
Growing Degree Days 2 (Base 50)    
Moisture  
Dew Point 47 °F    
Average Humidity 76    
Maximum Humidity 100    
Minimum Humidity 52    
Precipitation  
Precipitation 0.63 in 0.11 in 1.72 in (1970)
Month to date precipitation 2.84 2.72  
Year to date precipitation 10.03 10.72  
Snow  
Snow 0.00 in 0.00 in 3.00 in (2005)
Month to date snowfall T 1.1  
Since 1 July snowfall 41.2 26.7  
Snow Depth 0.00 in    
Sea Level Pressure  
Sea Level Pressure 29.89 in    
Wind  
Wind Speed 12 mph (WSW)    
Max Wind Speed 25 mph    
Max Gust Speed 31 mph    
Visibility 7 miles    
Events Rain    
T = Trace of Precipitation, MM = Missing Value Source: NWS Daily Summary

Daily Weather History Graph

Daily Weather History Graph

Search for Another Location

Airport:

Trip Planner

Search our weather history database for the weather conditions in past years. The results will help you decide how hot, cold, wet, or windy it might be!

Date:

Astronomy

Apr. 24, 2013 Rise Set
Actual Time 6:40 AM EDT 8:19 PM EDT
Civil Twilight 6:11 AM EDT 8:48 PM EDT
Nautical Twilight 5:37 AM EDT 9:23 PM EDT
Astronomical Twilight 5:00 AM EDT 10:00 PM EDT
Moon 7:21 PM EDT (4/24) 5:43 AM EDT (4/24)
Length of Visible Light 14h 36m
Length of Day
13h 38m
Waxing Gibbous, 98% of the Moon is Illuminated
Apr 24
Waxing Gibbous
Apr 25
Full
May 2
Last Quarter
May 9
New
May 18
First Quarter

Hourly Weather History & Observations

Time (EDT) Temp. Windchill Dew Point Humidity Pressure Visibility Wind Dir Wind Speed Gust Speed Precip Events Conditions
12:51 AM 63.0 °F - 46.9 °F 56% 29.88 in 10.0 mi South 5.8 mph - N/A   Overcast
1:51 AM 63.0 °F - 46.9 °F 56% 29.85 in 10.0 mi South 8.1 mph - N/A   Overcast
2:51 AM 64.9 °F - 46.0 °F 50% 29.81 in 10.0 mi South 15.0 mph - N/A   Overcast
3:51 AM 62.1 °F - 48.0 °F 60% 29.81 in 10.0 mi South 9.2 mph - 0.01 in Rain Light Rain
4:51 AM 63.0 °F - 48.9 °F 60% 29.80 in 10.0 mi SSW 13.8 mph 21.9 mph 0.00 in   Overcast
5:51 AM 63.0 °F - 48.9 °F 60% 29.81 in 10.0 mi SSW 13.8 mph 21.9 mph N/A   Overcast
6:51 AM 62.1 °F - 51.1 °F 67% 29.80 in 10.0 mi SSW 15.0 mph 23.0 mph 0.00 in   Overcast
7:51 AM 64.0 °F - 50.0 °F 60% 29.79 in 10.0 mi SSW 19.6 mph 24.2 mph N/A   Overcast
8:51 AM 64.0 °F - 51.1 °F 63% 29.78 in 10.0 mi SSW 16.1 mph 24.2 mph N/A   Overcast
9:17 AM 60.8 °F - 53.6 °F 77% 29.80 in 2.0 mi SSW 16.1 mph 31.1 mph 0.02 in Rain Light Rain
9:24 AM 60.8 °F - 53.6 °F 77% 29.80 in 5.0 mi SSW 16.1 mph - 0.05 in Rain Light Rain
9:41 AM 60.8 °F - 53.6 °F 77% 29.80 in 5.0 mi SSW 12.7 mph 21.9 mph 0.05 in Rain Light Rain
9:51 AM 59.0 °F - 55.0 °F 87% 29.78 in 5.0 mi SSW 12.7 mph 23.0 mph 0.07 in Rain Light Rain
10:38 AM 57.2 °F - 55.4 °F 94% 29.79 in 2.0 mi SSW 13.8 mph 19.6 mph 0.04 in Rain Heavy Rain
10:51 AM 57.9 °F - 55.9 °F 93% 29.78 in 2.0 mi SSW 11.5 mph - 0.10 in Rain Rain
11:00 AM 57.2 °F - 55.4 °F 94% 29.78 in 3.0 mi SSW 8.1 mph - 0.03 in Rain Rain
11:15 AM 57.2 °F - 55.4 °F 94% 29.79 in 2.5 mi SSW 10.4 mph - 0.06 in Rain Rain
11:27 AM 57.2 °F - 55.4 °F 94% 29.79 in 1.5 mi SW 11.5 mph - 0.13 in Rain Heavy Rain
11:51 AM 54.0 °F - 52.0 °F 93% 29.80 in 2.0 mi WNW 11.5 mph 24.2 mph 0.25 in Rain Heavy Rain
12:34 PM 51.8 °F - 50.0 °F 94% 29.78 in 6.0 mi East 3.5 mph - 0.09 in Rain Light Rain
12:51 PM 53.1 °F - 52.0 °F 96% 29.78 in 6.0 mi SSE 3.5 mph - 0.11 in Rain Rain
12:58 PM 53.6 °F - 53.6 °F 100% 29.79 in 5.0 mi South 4.6 mph - 0.01 in Rain Rain
1:25 PM 53.6 °F - 51.8 °F 94% 29.81 in 5.0 mi West 15.0 mph - 0.03 in Rain Rain
1:32 PM 51.8 °F - 50.0 °F 94% 29.81 in 6.0 mi West 19.6 mph 24.2 mph 0.04 in Rain Light Rain
1:51 PM 50.0 °F - 48.0 °F 93% 29.83 in 4.0 mi West 19.6 mph 27.6 mph 0.05 in Rain Rain
2:07 PM 48.2 °F - 48.2 °F 100% 29.85 in 1.8 mi WNW 18.4 mph 28.8 mph 0.02 in Rain Rain
2:15 PM 46.4 °F 39.2 °F 46.4 °F 100% 29.86 in 2.5 mi NW 18.4 mph 26.5 mph 0.03 in Rain Light Rain
2:51 PM 45.0 °F 37.4 °F 45.0 °F 100% 29.88 in 3.0 mi NW 18.4 mph 23.0 mph 0.04 in Rain Light Rain
3:14 PM 44.6 °F 37.2 °F 44.6 °F 100% 29.89 in 10.0 mi NW 17.3 mph 23.0 mph 0.00 in   Overcast
3:51 PM 44.1 °F 35.9 °F 44.1 °F 100% 29.94 in 10.0 mi West 19.6 mph 25.3 mph 0.00 in   Overcast
4:25 PM 42.8 °F 34.5 °F 42.8 °F 100% 29.97 in 10.0 mi WNW 18.4 mph 26.5 mph N/A   Overcast
4:51 PM 43.0 °F 36.0 °F 43.0 °F 100% 29.99 in 10.0 mi NW 13.8 mph 21.9 mph N/A   Overcast
5:51 PM 43.0 °F 35.4 °F 42.1 °F 97% 30.05 in 10.0 mi WNW 16.1 mph - N/A   Overcast
6:51 PM 42.1 °F 34.2 °F 37.9 °F 85% 30.08 in 10.0 mi West 16.1 mph 24.2 mph 0.00 in   Overcast
7:51 PM 43.0 °F 36.8 °F 37.0 °F 80% 30.12 in 10.0 mi West 11.5 mph 19.6 mph N/A   Mostly Cloudy
8:10 PM 42.8 °F 35.8 °F 35.6 °F 76% 30.12 in 10.0 mi West 13.8 mph - N/A   Mostly Cloudy
8:51 PM 41.0 °F 36.4 °F 34.0 °F 76% 30.15 in 10.0 mi West 6.9 mph - N/A   Scattered Clouds
9:51 PM 39.9 °F 35.8 °F 35.1 °F 83% 30.18 in 10.0 mi West 5.8 mph - N/A   Partly Cloudy
10:51 PM 39.9 °F 35.1 °F 33.1 °F 77% 30.20 in 10.0 mi West 6.9 mph - N/A   Partly Cloudy
11:51 PM 39.0 °F 34.8 °F 33.1 °F 79% 30.21 in 10.0 mi West 5.8 mph - N/A   Partly Cloudy